Weather History for K79J - January, 2013

Change the Weather History Date:

Wednesday, January 16, 2013

  Actual Average (KCEW) Record (KCEW)
Temperature  
Mean Temperature 61 °F -  
Max Temperature 71 °F 59 °F 81 °F (1950)
Min Temperature 51 °F 35 °F 23 °F (1983)
Degree Days  
Heating Degree Days 4    
Growing Degree Days 11 (Base 50)    
Moisture  
Dew Point 56 °F    
Average Humidity 85    
Maximum Humidity 88    
Minimum Humidity 82    
Precipitation  
Precipitation 0.75 in - - ()
Sea Level Pressure  
Sea Level Pressure 29.97 in    
Wind  
Wind Speed 5 mph (North)    
Max Wind Speed 12 mph    
Max Gust Speed -    
Visibility 6 miles    
Events Rain    
Averages and records for this station are not official NWS values.
T = Trace of Precipitation, MM = Missing Value Source: NWS Daily Summary

Daily Weather History Graph

Daily Weather History Graph

Search for Another Location

Airport or City:

Trip Planner

Search our weather history database for the weather conditions in past years. The results will help you decide how hot, cold, wet, or windy it might be!

Date:

Astronomy

Jan. 16, 2013 Rise Set
Actual Time 6:44 AM CST 5:06 PM CST
Civil Twilight 6:18 AM CST 5:32 PM CST
Nautical Twilight 5:48 AM CST 6:02 PM CST
Astronomical Twilight 5:19 AM CST 6:31 PM CST
Moon 9:44 AM CST (1/16) 10:31 PM CST (1/16)
Length of Visible Light 11h 14m
Length of Day
10h 21m
Waxing Crescent, 28% of the Moon is Illuminated
Jan 16
Waxing Crescent
Jan 18
First Quarter
Jan 26
Full
Feb 3
Last Quarter
Feb 10
New

Hourly Weather History & Observations

Time (CST) Temp. Dew Point Humidity Pressure Visibility Wind Dir Wind Speed Gust Speed Precip Events Conditions
12:08 AM 71.6 °F 66.2 °F 83% 29.95 in 10.0 mi SW 5.8 mph - N/A   Overcast
12:15 AM 71.6 °F 66.2 °F 83% 29.95 in 10.0 mi SW 4.6 mph - N/A   Overcast
12:56 AM 71.1 °F 66.0 °F 84% 29.94 in 10.0 mi Variable 4.6 mph - N/A   Mostly Cloudy
1:15 AM 69.8 °F 64.4 °F 83% 29.95 in 5.0 mi Variable 3.5 mph - 0.01 in Rain Light Rain
1:42 AM 69.8 °F 64.4 °F 83% 29.95 in 10.0 mi South 4.6 mph - 0.03 in Rain Light Rain
1:56 AM 70.0 °F 64.9 °F 84% 29.94 in 10.0 mi Variable 3.5 mph - 0.03 in   Overcast
2:04 AM 69.8 °F 64.4 °F 83% 29.94 in 10.0 mi Variable 5.8 mph - N/A   Overcast
2:18 AM 69.8 °F 64.4 °F 83% 29.94 in 9.0 mi South 4.6 mph - N/A   Overcast
2:56 AM 71.1 °F 66.0 °F 84% 29.93 in 6.0 mi WSW 4.6 mph - 0.00 in Rain Light Rain
3:53 AM 71.6 °F 66.2 °F 83% 29.93 in 6.0 mi SSW 4.6 mph - 0.01 in   Haze
3:56 AM 71.1 °F 66.0 °F 84% 29.92 in 5.0 mi Variable 3.5 mph - 0.01 in Rain Light Rain
4:56 AM 70.0 °F 64.9 °F 84% 29.93 in 10.0 mi West 5.8 mph - 0.01 in   Overcast
5:04 AM 69.8 °F 64.4 °F 83% 29.94 in 10.0 mi WSW 3.5 mph - N/A   Overcast
5:13 AM 69.8 °F 64.4 °F 83% 29.94 in 10.0 mi WSW 4.6 mph - N/A   Overcast
5:22 AM 69.8 °F 64.4 °F 83% 29.95 in 10.0 mi Variable 4.6 mph - N/A   Overcast
5:37 AM 69.8 °F 64.4 °F 83% 29.95 in 10.0 mi WSW 4.6 mph - 0.00 in   Overcast
5:43 AM 69.8 °F 64.4 °F 83% 29.95 in 9.0 mi Variable 3.5 mph - 0.00 in   Overcast
5:56 AM 70.0 °F 66.0 °F 87% 29.94 in 8.0 mi Calm Calm - 0.00 in   Overcast
6:25 AM 64.4 °F 60.8 °F 88% 29.96 in 10.0 mi North 9.2 mph - N/A   Overcast
6:56 AM 61.0 °F 57.0 °F 87% 29.97 in 6.0 mi NNW 6.9 mph - 0.02 in Rain Light Rain
7:05 AM 60.8 °F 57.2 °F 88% 29.98 in 1.8 mi NNE 9.2 mph - 0.06 in Rain Heavy Rain
7:10 AM 60.8 °F 55.4 °F 82% 29.98 in 2.5 mi North 8.1 mph - 0.07 in Rain Light Rain
7:17 AM 60.8 °F 55.4 °F 82% 29.99 in 7.0 mi North 8.1 mph - 0.07 in Rain Light Rain
7:25 AM 60.8 °F 55.4 °F 82% 29.99 in 1.5 mi North 4.6 mph - 0.11 in Rain Rain
7:27 AM 59.0 °F 55.4 °F 88% 29.99 in 1.0 mi NNE 4.6 mph - 0.13 in Rain Heavy Rain
7:35 AM 59.0 °F 55.4 °F 88% 29.99 in 1.5 mi North 8.1 mph - 0.14 in Rain Light Rain
7:38 AM 59.0 °F 55.4 °F 88% 29.99 in 3.0 mi NNE 8.1 mph - 0.14 in Rain Light Rain
7:56 AM 59.0 °F 55.0 °F 87% 29.99 in 9.0 mi NNW 5.8 mph - 0.14 in   Overcast
8:09 AM 59.0 °F 55.4 °F 88% 30.00 in 2.0 mi NNE 3.5 mph - 0.02 in Rain Light Rain
8:19 AM 59.0 °F 53.6 °F 82% 30.00 in 10.0 mi NNE 4.6 mph - 0.02 in   Overcast
8:56 AM 59.0 °F 54.0 °F 83% 30.01 in 10.0 mi North 4.6 mph - 0.03 in   Overcast
9:56 AM 59.0 °F 55.0 °F 87% 30.01 in 5.0 mi North 3.5 mph - N/A   Overcast
10:21 AM 60.8 °F 55.4 °F 82% 30.00 in 2.5 mi North 3.5 mph - N/A   Overcast
10:42 AM 60.8 °F 55.4 °F 82% 29.99 in 1.2 mi North 6.9 mph - 0.02 in Rain Heavy Rain
10:56 AM 60.1 °F 55.0 °F 83% 29.98 in 1.0 mi North 4.6 mph - 0.07 in Rain Heavy Rain
11:05 AM 60.8 °F 55.4 °F 82% 29.98 in 1.5 mi Calm Calm - 0.02 in Rain Light Rain
11:13 AM 60.8 °F 55.4 °F 82% 29.98 in 2.5 mi North 3.5 mph - 0.03 in Rain Light Rain
11:35 AM 60.8 °F 55.4 °F 82% 29.98 in 1.8 mi North 6.9 mph - 0.06 in Rain Light Rain
11:39 AM 60.8 °F 55.4 °F 82% 29.97 in 3.0 mi North 6.9 mph - 0.06 in Rain Light Rain
11:56 AM 61.0 °F 55.9 °F 83% 29.96 in 10.0 mi NNW 6.9 mph - 0.06 in   Overcast
12:56 PM 59.0 °F 54.0 °F 83% 29.94 in 5.0 mi NNE 3.5 mph - 0.00 in Rain Light Rain
1:43 PM 59.0 °F 53.6 °F 82% 29.95 in 1.8 mi North 3.5 mph - 0.04 in Rain Light Rain
1:47 PM 57.2 °F 53.6 °F 88% 29.95 in 1.0 mi Calm Calm - 0.05 in Rain Heavy Rain
1:56 PM 59.0 °F 54.0 °F 83% 29.94 in 1.2 mi North 4.6 mph - 0.10 in Rain Heavy Rain
2:02 PM 59.0 °F 53.6 °F 82% 29.94 in 1.0 mi North 4.6 mph - 0.03 in Rain Heavy Rain
2:33 PM 57.2 °F 53.6 °F 88% 29.95 in 1.2 mi NNW 5.8 mph - 0.13 in Rain Rain
2:43 PM 57.2 °F 53.6 °F 88% 29.95 in 1.5 mi North 3.5 mph - 0.14 in Rain Rain
2:56 PM 57.9 °F 53.1 °F 84% 29.96 in 1.2 mi NNW 8.1 mph - 0.17 in Rain Heavy Rain
3:02 PM 57.2 °F 53.6 °F 88% 29.97 in 2.0 mi NNW 11.5 mph - 0.01 in Rain Rain
3:11 PM 57.2 °F 53.6 °F 88% 29.97 in 1.8 mi NNW 5.8 mph - 0.03 in Rain Heavy Rain
3:18 PM 57.2 °F 53.6 °F 88% 29.96 in 2.0 mi North 5.8 mph - 0.03 in Rain Light Rain
3:22 PM 57.2 °F 53.6 °F 88% 29.96 in 3.0 mi North 6.9 mph - 0.03 in Rain Light Rain
3:32 PM 57.2 °F 53.6 °F 88% 29.97 in 5.0 mi North 5.8 mph - 0.03 in Rain Light Rain
3:56 PM 55.9 °F 52.0 °F 87% 29.97 in 4.0 mi NW 8.1 mph - 0.04 in Rain Light Rain
4:21 PM 55.4 °F 51.8 °F 88% 29.98 in 2.0 mi NNW 8.1 mph - 0.01 in Rain Light Rain
4:33 PM 55.4 °F 51.8 °F 88% 29.98 in 4.0 mi North 8.1 mph - 0.02 in Rain Light Rain
4:40 PM 55.4 °F 51.8 °F 88% 29.98 in 8.0 mi NNW 8.1 mph - 0.02 in Rain Light Rain
4:56 PM 55.0 °F 51.1 °F 86% 29.98 in 10.0 mi NNW 10.4 mph - 0.02 in   Overcast
5:04 PM 55.4 °F 50.0 °F 82% 29.99 in 10.0 mi North 6.9 mph - 0.00 in Rain Light Rain
5:32 PM 53.6 °F 48.2 °F 82% 29.98 in 10.0 mi North 8.1 mph - 0.00 in   Overcast
5:56 PM 53.1 °F 48.0 °F 83% 29.99 in 10.0 mi North 8.1 mph - 0.00 in   Overcast
6:39 PM 53.6 °F 48.2 °F 82% 30.01 in 10.0 mi NNW 8.1 mph - N/A   Overcast
6:56 PM 53.1 °F 48.0 °F 83% 30.00 in 7.0 mi North 5.8 mph - 0.00 in Rain Light Rain
7:56 PM 52.0 °F 48.0 °F 86% 30.01 in 10.0 mi North 4.6 mph - 0.01 in Rain Light Rain
8:51 PM 51.8 °F 46.4 °F 82% 29.99 in 8.0 mi NNE 5.8 mph - 0.02 in Rain Light Rain
8:56 PM 52.0 °F 46.9 °F 83% 29.98 in 9.0 mi NNE 5.8 mph - 0.02 in Rain Light Rain
9:10 PM 51.8 °F 46.4 °F 82% 29.98 in 10.0 mi NNE 4.6 mph - 0.00 in   Overcast
9:56 PM 52.0 °F 46.9 °F 83% 29.97 in 7.0 mi Calm Calm - 0.00 in Rain Light Rain
10:22 PM 51.8 °F 48.2 °F 88% 29.96 in 4.0 mi SE 4.6 mph - 0.02 in Rain Light Rain
10:34 PM 51.8 °F 48.2 °F 88% 29.96 in 9.0 mi SE 3.5 mph - 0.02 in   Overcast
10:56 PM 53.1 °F 48.9 °F 86% 29.95 in 10.0 mi Calm Calm - 0.02 in   Overcast
11:56 PM 52.0 °F 46.9 °F 83% 29.98 in 5.0 mi NW 11.5 mph - 0.00 in Rain Light Rain